Regional Weather Roundup
Issued by NWS

Home | Current Version | Previous Version | Graphics & Text | Print | Product List | Glossary On
Versions: 1 2 3 4 5 6 7 8 9 10 11 12 13 14 15 16 17 18 19 20 21 22 23 24 25 26 27 28 29 30 31 32 33 34 35 36 37 38 39 40 41 42 43 44 45 46 47 48 49 50
000
ASUS43 KLMK 271802
RWRKY
KENTUCKY REGIONAL WEATHER ROUNDUP
NATIONAL WEATHER SERVICE LOUISVILLE KY
100 PM EST FRI FEB 27 2015

NOTE "FAIR" INDICATES FEW OR NO CLOUDS BELOW 12,000 FEET
WITH NO SIGNIFICANT WEATHER AND/OR OBSTRUCTIONS TO VISIBILITY.

KYZ001>023-026-027-061>063-070>075-271900-
WESTERN AND SOUTH CENTRAL KENTUCKY

CITY           SKY/WX    TMP DP  RH WIND       PRES   REMARKS
PADUCAH        SUNNY     22  10  60 NE8       30.62F WCI  12
HENDERSON      PTSUNNY   21   9  58 N5        30.65S WCI  15
OWENSBORO      SUNNY     22   8  54 N6        30.64S WCI  15
HOPKINSVILLE   PTSUNNY   23  11  61 NE9       30.60S WCI  13
BOWLING GREEN  SUNNY     27   7  42 NW6       30.59F WCI  20
GLASGOW        NOT AVBL
$$

KYZ024-025-028>034-038-045-046-053-271900-
NORTH CENTRAL KENTUCKY

CITY           SKY/WX    TMP DP  RH WIND       PRES   REMARKS
LOUISVILLE/SDF MOSUNNY   24   5  44 N8        30.61F WCI  15
LOUISVILLE/LOU MOSUNNY   22   3  44 VRB5      30.62F WCI  16
FORT KNOX      SUNNY     22   5  47 N7        30.57F WCI  13
$$

KYZ035>037-039>044-047>052-055>060-089>105-271900-
NORTHEAST KENTUCKY

CITY           SKY/WX    TMP DP  RH WIND       PRES   REMARKS
LEXINGTON      MOSUNNY   19   6  57 NW7       30.58F WCI  10
COVINGTON      MOSUNNY   19   2  47 N9        30.58F WCI   8
FRANKFORT      MOSUNNY   22   2  42 NE7       30.58F WCI  13
$$

KYZ054-064>069-076>088-106>120-271900-
SOUTHEAST KENTUCKY

CITY           SKY/WX    TMP DP  RH WIND       PRES   REMARKS
JACKSON        SUNNY     23   5  46 NW8       30.50F WCI  14
LONDON         SUNNY     25   5  42 VRB5      30.52F WCI  19
SOMERSET       NOT AVBL
MIDDLESBORO    NOT AVBL
MONTICELLO     CLEAR     24   9  53 NE8       30.57F WCI  15
$$



USA.gov is the U.S. government's official web portal to all federal, state and local government web resources and services.